Location: Bremen
(53.0793°N, 8.8017°E)
Time: 05:39:40
(UTC+02:00)

Tiros 1 - Pass Details

Date: 21 April 2024
Orbit: 624 x 657 km, 48.4° (Epoch: 17 May)

Event Time Altitude Azimuth Distance (km) Brightness Sun altitude
Rises 05:53:54 0° 274° (W) 2,915 - -3.3°
Exits shadow 05:54:03 - 273° (W) 2,861 9.9 -3.3°
Reaches altitude 10° 05:56:26 10° 264° (W) 2,002 9.1 -2.9°
Maximum altitude 06:00:26 30° 203° (SSW) 1,122 8.0 -2.4°
Drops below altitude 10° 06:04:25 10° 142° (SE) 1,991 9.9 -1.8°
Sets 06:06:56 0° 132° (SE) 2,895 10.9 -1.5°
